This demonstration page uses our WeatherBlox Daily Observations layout. Learn more.

Left ArrowRight Arrow

Hourly Observations for March 13, 2020

Temp ( °F °C ) Dew Point ( °F °C ) Humidity (%) Winds ( mph kmh ) Pressure ( in mb ) Visibility ( mi km ) Precip ( " mm )
12:54 am 00:54 Clear 34 1.1 24 -4.4 67 67 NW 3 6 30.19 1023 10 16.0934 0 0
1:54 am 01:54 Clear 26 -3.3 20 -6.7 78 78 Calm 30.22 1024 10 16.0934 0 0
2:54 am 02:54 Clear 23 -5 18 -7.8 81 81 Calm 30.25 1024 10 16.0934 0 0
3:54 am 03:54 Clear 27 -2.8 22 -5.6 81 81 Calm 30.26 1025 10 16.0934 0 0
4:54 am 04:54 Clear 28 -2.2 22 -5.6 78 78 Calm 30.28 1025 10 16.0934 0 0
5:54 am 05:54 Clear 23 -5 18 -7.8 81 81 Calm 30.29 1026 10 16.0934 0 0
6:54 am 06:54 Clear 26 -3.3 21 -6.1 81 81 N 3 6 30.3 1026 10 16.0934 0 0
7:54 am 07:54 Sunny 26 -3.3 21 -6.1 81 81 Calm 30.32 1027 10 16.0934 0 0
8:54 am 08:54 Mostly Sunny 30 -1.1 25 -3.9 82 82 SW 3 6 30.36 1028 10 16.0934 0 0
9:54 am 09:54 Cloudy 34 1.1 26 -3.3 73 73 Calm 30.4 1030 10 16.0934 0 0
10:54 am 10:54 Cloudy 36 2.2 28 -2.2 73 73 SSW 3 6 30.43 1030 10 16.0934 0 0
11:54 am 11:54 Cloudy 38 3.3 27 -2.8 65 65 SSW 3 6 30.44 1031 10 16.0934 0 0
12:54 pm 12:54 Mostly Cloudy 41 5 23 -5 49 49 VRB 5 7 30.44 1031 10 16.0934 0 0
1:54 pm 13:54 Sunny 44 6.7 21 -6.1 40 40 VRB 3 6 30.43 1031 10 16.0934 0 0
2:54 pm 14:54 Sunny 45 7.2 19 -7.2 35 35 ENE 9 15 30.4 1029 10 16.0934 0 0
3:54 pm 15:54 Mostly Cloudy 44 6.7 20 -6.7 38 38 E 6 9 30.4 1029 10 16.0934 0 0
4:54 pm 16:54 Cloudy 44 6.7 21 -6.1 40 40 E 7 11 30.4 1029 10 16.0934 0 0
5:54 pm 17:54 Cloudy 44 6.7 22 -5.6 41 41 E 6 9 30.41 1030 10 16.0934 0 0
6:54 pm 18:54 Cloudy with Light Rain 39 3.9 28 -2.2 65 65 ESE 14 22 30.44 1031 7 11.26538 0.001 0.001
7:15 pm 19:15 Cloudy with Light Snow 37 2.8 30 -1.1 76 76 ESE 10 17 30.45 1031 6 9.65604 0.001 0.001
7:22 pm 19:22 Cloudy with Light Snow 37 2.8 30 -1.1 76 76 ESE 9 15 30.45 1031 8 12.87472 0.01 0.254
7:53 pm 19:53 Cloudy with Light Snow 34 1.1 31 -0.6 89 89 SE 8 13 30.44 1031 3 4.82802 0.02 0.508
8:06 pm 20:06 Cloudy with Light Snow 35 1.7 32 0 89 89 ESE 9 15 30.45 1031 8 12.87472 0.01 0.254
8:15 pm 20:15 Cloudy with Light Rain 35 1.7 32 0 89 89 ESE 7 11 30.45 1031 9 14.48406 0.01 0.254
8:26 pm 20:26 Cloudy with Light Snow 35 1.7 32 0 89 89 ESE 7 11 30.46 1032 7 11.26538 0.01 0.254
8:54 pm 20:54 Cloudy with Light Snow 35 1.7 32 0 89 89 E 7 11 30.44 1031 5 8.0467 0.02 0.508
9:02 pm 21:02 Cloudy with Light Snow 35 1.7 32 0 89 89 E 8 13 30.44 1031 5 8.0467 0.001 0.001
9:22 pm 21:22 Cloudy with Light Snow 35 1.7 32 0 89 89 E 9 15 30.44 1031 7 11.26538 0.01 0.254
9:37 pm 21:37 Cloudy with Light Rain 35 1.7 32 0 89 89 E 10 17 30.43 1031 6 9.65604 0.01 0.254
9:54 pm 21:54 Cloudy with Light Snow 35 1.7 32 0 89 89 E 8 13 30.42 1030 5 8.0467 0.01 0.254
10:54 pm 22:54 Cloudy with Light Snow 34 1.1 32 0 92 92 E 10 17 30.4 1030 4 6.43736 0.03 0.762
11:52 pm 23:52 Cloudy with Light Snow 34 1 30 -1 87 87 E 8 13 30.44 1031 2 3.21868 0.04 1.016
11:54 pm 23:54 Cloudy with Light Snow 34 1.1 31 -0.6 89 89 E 6 9 30.42 1030 1.75 2.816345 0.04 1.016

Powered by AerisWeather